Location: Ravensburg
(47.7866°N, 9.6124°E)
Time: 11:43:14
(UTC+01:00)

BlueWalker 3 - Visible Passes

Search period start: 21 January 2026 00:00
Search period end: 31 January 2026 00:00
Orbit: 451 x 463 km, 53.2° (Epoch: 20 January)

Date Brightness Start Highest point End Pass type
(mag) Time Alt. Az. Time Alt. Az. Time Alt. Az.
21 Jan 3.4 18:22:34 10° S 18:25:05 18° SE 18:25:58 17° ESE visible
21 Jan 4.3 19:58:37 10° WSW 19:59:43 19° WSW 19:59:43 19° WSW visible
22 Jan 3.8 17:47:44 10° SSE 17:49:46 15° SE 17:51:47 10° E visible
22 Jan 2.4 19:23:11 10° SW 19:25:59 52° SW 19:25:59 52° SW visible
23 Jan 1.8 18:47:46 10° SW 18:51:18 64° SSE 18:52:09 46° E visible
23 Jan 5.1 20:25:34 10° W 20:25:53 12° W 20:25:53 12° W visible
24 Jan 2.1 18:12:23 10° SW 18:15:51 50° SE 18:18:14 18° ENE visible
24 Jan 3.7 19:49:57 10° W 19:51:58 28° WNW 19:51:58 28° WNW visible
25 Jan 2.2 19:14:21 10° W 19:17:50 49° NNW 19:17:58 49° N visible
26 Jan 2.1 18:38:43 10° WSW 18:42:14 57° NNW 18:43:54 28° NE visible
26 Jan 4.8 20:16:54 10° WNW 20:17:38 15° WNW 20:17:38 15° WNW visible
27 Jan 1.9 18:03:05 10° WSW 18:06:39 67° NNW 18:09:47 13° ENE visible
27 Jan 3.5 19:41:15 10° WNW 19:43:31 28° NW 19:43:31 28° NW visible
28 Jan 2.7 19:05:32 10° WNW 19:08:50 34° N 19:09:21 32° NNE visible
29 Jan 2.7 18:29:47 10° WNW 18:33:08 36° N 18:35:09 19° NE visible
29 Jan 4.4 20:07:47 10° WNW 20:08:53 18° NW 20:08:53 18° NW visible
30 Jan 2.6 17:54:01 10° W 17:57:24 39° NNW 18:00:47 10° ENE visible
30 Jan 3.1 19:32:06 10° WNW 19:34:39 31° NNW 19:34:39 31° NNW visible
